Copper Harbor, MI

8:33 PM EDT on April 29, 2017 (GMT -0400)
Copper Harbor

Weather History for KP59 - April, 2014

Change the Weather History Date:

Tuesday, April 29, 2014

  Actual Average Record
Temperature  
Mean Temperature 36 °F -  
Max Temperature 37 °F 50 °F 73 °F (2007)
Min Temperature 35 °F 34 °F 27 °F (2012)
Degree Days  
Heating Degree Days 29    
Moisture  
Dew Point 31 °F    
Average Humidity 81    
Maximum Humidity 96    
Minimum Humidity 60    
Precipitation  
Precipitation 0.35 in - - ()
Sea Level Pressure  
Sea Level Pressure 29.90 in    
Wind  
Wind Speed 9 mph (ESE)    
Max Wind Speed 15 mph    
Max Gust Speed 28 mph    
Averages and records for this station are not official NWS values.
T = Trace of Precipitation, MM = Missing Value Source: NWS Daily Summary

Daily Weather History Graph

Daily Weather History Graph

Search for Another Location

Airport or City:

Trip Planner

Search our weather history database for the weather conditions in past years. The results will help you decide how hot, cold, wet, or windy it might be!

Date:

Astronomy

Apr. 29, 2014 Rise Set
Actual Time 6:38 AM EDT 9:00 PM EDT
Civil Twilight 6:04 AM EDT 9:34 PM EDT
Nautical Twilight 5:21 AM EDT 10:17 PM EDT
Astronomical Twilight 4:33 AM EDT 11:06 PM EDT
Moon 6:56 AM EDT (4/29) 9:41 PM EDT (4/29)
Length of Visible Light 15h 30m
Length of Day
14h 22m
New Moon, 0% of the Moon is Illuminated
Apr 29
New Moon
May 6
First Quarter
May 14
Full
May 21
Last Quarter
May 28
New

Hourly Weather History & Observations

Time (EDT) Temp. Windchill Dew Point Humidity Pressure Visibility Wind Dir Wind Speed Gust Speed Precip Events Conditions
12:51 AM 37.9 °F 32.1 °F 25.0 °F 60% 30.08 in - SE 8.1 mph - N/A   Unknown
1:51 AM 37.9 °F 32.1 °F 26.1 °F 62% 30.06 in - SE 8.1 mph - N/A   Unknown
2:51 AM 37.0 °F 31.0 °F 27.0 °F 67% 30.05 in - ESE 8.1 mph 17.3 mph N/A   Unknown
3:51 AM 37.0 °F 30.4 °F 27.0 °F 67% 30.01 in - SE 9.2 mph - N/A   Unknown
4:51 AM 36.0 °F 29.0 °F 27.0 °F 70% 30.00 in - ESE 9.2 mph 17.3 mph N/A   Unknown
5:51 AM 35.1 °F 27.4 °F 27.0 °F 72% 29.98 in - ESE 10.4 mph 19.6 mph N/A   Unknown
6:51 AM 35.1 °F 26.4 °F 28.0 °F 76% 29.96 in - ESE 12.7 mph 19.6 mph N/A   Unknown
7:51 AM 35.1 °F 27.4 °F 28.0 °F 76% 29.94 in - ESE 10.4 mph 19.6 mph N/A   Unknown
8:51 AM 35.1 °F 27.9 °F 28.9 °F 78% 29.94 in - East 9.2 mph 19.6 mph N/A   Unknown
9:51 AM 37.0 °F 29.8 °F 30.0 °F 76% 29.91 in - ESE 10.4 mph 20.7 mph N/A   Unknown
11:51 AM 36.0 °F 30.3 °F 28.9 °F 76% 29.90 in - Variable 6.9 mph - N/A   Unknown
12:51 PM 36.0 °F 29.6 °F 30.0 °F 79% 29.88 in - SE 8.1 mph - N/A   Unknown
1:51 PM 36.0 °F 27.1 °F 30.9 °F 82% 29.85 in - ESE 13.8 mph 23.0 mph 0.02 in   Unknown
2:51 PM 35.1 °F 25.5 °F 32.0 °F 89% 29.83 in - East 15.0 mph 27.6 mph 0.05 in   Unknown
3:51 PM 35.1 °F 26.9 °F 32.0 °F 89% 29.84 in - ESE 11.5 mph 20.7 mph 0.06 in   Unknown
4:51 PM 36.0 °F 28.0 °F 33.1 °F 89% 29.84 in - East 11.5 mph 23.0 mph 0.05 in   Unknown
5:51 PM 36.0 °F 28.5 °F 34.0 °F 93% 29.83 in - ESE 10.4 mph 19.6 mph 0.06 in   Unknown
6:51 PM 36.0 °F 30.3 °F 34.0 °F 93% 29.82 in - Variable 6.9 mph - 0.06 in   Unknown
7:51 PM 37.0 °F 31.0 °F 35.1 °F 93% 29.83 in - SE 8.1 mph - 0.03 in   Unknown
8:51 PM 37.0 °F 30.4 °F 35.1 °F 93% 29.83 in - SE 9.2 mph 17.3 mph N/A   Unknown
9:51 PM 37.0 °F 28.5 °F 35.1 °F 93% 29.82 in - SE 13.8 mph 21.9 mph 0.01 in   Unknown
10:51 PM 37.0 °F 31.0 °F 35.1 °F 93% 29.81 in - SE 8.1 mph 19.6 mph 0.01 in   Unknown
11:51 PM 37.0 °F - 36.0 °F 96% 29.79 in - Calm Calm - N/A   Unknown